Location: ActonStarParty
(42.4766°N, 71.4538°W)
Time: 18:01:52
(UTC-05:00)

Daily predictions for brighter satellites

Satellite Brightness Start Highest point End
(mag) Time Altitude Azimuth Time Altitude Azimuth Time Altitude Azimuth
Ariane Rocket 3.9 17:42:43 10° S 17:47:43 57° W 17:52:46 10° NNW
Cosmos 1812 3.5 17:47:45 10° NNE 17:51:16 31° ENE 17:54:44 10° SE
ALOS 2.2 17:47:23 10° SSE 17:52:02 75° ENE 17:56:43 10° N
Cosmos 2333 Rocket 3.1 17:47:21 10° NNW 17:52:54 57° WSW 17:58:24 10° S
Cosmos 2084 Rocket 3.8 17:48:55 10° SW 17:53:18 69° NW 17:57:30 10° NNE
SKYMED 2 3.5 17:50:13 10° NNE 17:54:35 79° ESE 17:58:56 10° S
Cosmos 44 3.8 17:51:24 10° NNW 17:56:13 45° NE 18:01:13 10° SE
Cosmos 2082 3.8 17:51:08 10° S 17:56:38 61° ESE 18:02:11 10° NNE
SL-8 R/B 4.0 17:52:56 10° SW 17:57:34 52° SE 18:02:12 10° ENE
MONITOR-E 4.0 17:55:08 10° SSE 17:58:08 74° ENE 18:01:09 10° N
Cosmos 2056 Rocket 3.9 17:54:29 10° NNW 17:59:54 73° WSW 18:05:18 10° S
Aureole 3 4.3 17:56:28 10° SSE 18:02:12 48° E 18:06:46 10° NNE
CZ-2C R/B 4.2 18:00:37 10° N 18:05:02 63° WNW 18:09:24 10° SSW
Lacrosse 5 2.8 18:00:53 10° NW 18:05:48 51° SW 18:10:40 10° SSE
Cosmos 1452 Rocket 3.7 18:00:57 10° N 18:06:06 52° ENE 18:11:12 10° SE
Resurs 01 Rocket 3.5 18:05:08 10° ENE 18:06:28 11° ENE 18:07:49 10° NE
DNEPR-1 R/B 3.6 18:03:06 10° SW 18:07:17 76° NW 18:11:39 10° NNE
SPOT 3 Rocket 3.5 18:04:09 10° SSE 18:09:18 71° ENE 18:14:31 10° N
BREEZE-M DEB (TANK) 2.6 18:08:02 10° NW 18:10:17 29° NNE 18:12:11 13° ENE
Iridium 4 Rocket 3.9 18:07:34 10° NNE 18:12:00 33° E 18:16:05 10° SE
ATLAS 3B R/B 3.8 18:05:27 10° WSW 18:12:18 44° NW 18:18:54 10° NNE
Cosmos 158 Rocket 4.1 18:08:44 10° S 18:13:22 44° ESE 18:17:59 10° NNE
Cosmos 1980 4.4 18:08:41 10° NNW 18:14:17 60° WSW 18:19:51 10° S
NOSS 3-2 (A) 4.0 18:09:28 10° SW 18:15:20 59° NW 18:21:54 10° NNE
Cosmos 2233 Rocket 4.4 18:11:22 10° NNW 18:17:37 70° W 18:23:48 10° S
Cosmos 1437 Rocket 4.0 18:15:23 10° SE 18:18:29 21° E 18:21:37 10° NE
EO 1 Del DPAF 3.1 18:15:57 10° NNE 18:19:46 72° ESE 18:23:35 10° S
Cosmos 1420 Rocket 4.0 18:21:32 10° NNW 18:26:48 64° ENE 18:32:02 10° SSE
Cosmos 1378 Rocket 3.6 18:24:01 10° N 18:28:21 54° E 18:32:41 10° SSE
Cosmos 405 3.4 18:24:55 10° SSW 18:28:23 64° W 18:31:54 10° N
USA 186 3.9 18:31:32 13° NE 18:31:32 13° NE 18:32:20 10° NNE
Landsat 4 4.1 18:26:55 10° N 18:30:38 65° WNW 18:34:20 10° SSW
FengYun 1-2 T 4.1 18:29:41 10° SSE 18:35:11 79° ENE 18:40:42 10° NNW
Cosmos 1464 Rocket 3.9 18:29:27 10° N 18:35:35 70° E 18:41:41 10° SSE
Cosmos 1782 Rocket 4.1 18:32:07 10° SSE 18:36:11 36° E 18:40:15 10° NNE
Sich 1 Rocket 3.7 18:32:51 10° SSE 18:37:13 50° E 18:41:32 10° NNE
OAO 2 Rocket 4.5 18:38:52 10° SW 18:43:06 29° SSE 18:45:28 19° SE
Cosmos 1943 4.5 18:40:08 10° N 18:44:19 21° NE 18:45:17 20° ENE
ATLAS CENTAUR R/B 3.6 18:44:33 10° NNE 18:45:42 11° NNE 18:45:42 11° NNE
Okean 2 Rocket 3.6 18:49:35 10° SSE 18:53:32 34° E 18:57:30 10° NNE
ARGOS Delta rocket 3.9 18:48:51 10° NNE 18:53:36 50° E 18:58:04 10° S
USA 215 3.3 18:49:59 16° NE 18:55:21 64° SE 19:01:49 10° SW
SeaSat 1 2.4 18:53:05 17° SE 18:56:47 62° ENE 19:01:40 10° NNW
Cosmos 2227 Rocket 3.7 18:53:10 10° WSW 18:58:19 36° WNW 19:03:30 10° N
Cosmos 2237 Rocket 4.3 18:53:42 10° NW 18:58:24 28° WSW 19:03:05 10° SSW
SJ-6B 2.6 18:55:35 10° SSE 18:59:20 83° ENE 19:03:12 10° N
Envisat 2.9 18:54:35 10° SSE 18:59:34 62° ENE 19:04:36 10° N
Thor Agena Rocket 3.4 18:55:20 10° NNE 19:00:25 64° ESE 19:05:24 10° S
SL-16 R/B 2.6 18:57:03 10° NNW 19:02:40 64° WSW 19:08:14 10° S
Tiangong 2 3.1 19:02:14 10° W 19:04:48 22° SSW 19:05:47 19° S
FREGAT/IRIS 4.2 19:03:36 10° SSW 19:06:21 35° W 19:09:07 10° NNW
Cosmos 44 Rocket 3.8 19:01:29 10° NW 19:06:29 64° WSW 19:11:24 11° SSE
USA 32 4.0 19:02:11 10° S 19:07:25 86° W 19:12:40 10° N
Meteor 1-13 Rocket 4.3 19:02:11 10° N 19:07:34 50° ENE 19:10:13 28° SE
Cosmos 1269 Rocket 3.9 19:03:39 10° SSW 19:08:55 76° ESE 19:14:13 10° NNE
Cosmos 2034 Rocket 4.0 19:04:35 10° N 19:11:00 85° W 19:17:21 10° S
HJ-1C 4.2 19:08:01 10° S 19:11:22 53° W 19:14:45 10° NNW
Cosmos 2297 Rocket 3.9 19:07:17 10° WSW 19:12:19 32° NW 19:17:23 10° N
Okean 1 3.6 19:09:23 10° NNW 19:13:20 65° W 19:17:16 10° S
Cosmos 1110 Rocket 4.2 19:08:27 10° N 19:13:35 49° ENE 19:14:27 44° E
Cosmos 921 Rocket 3.3 19:15:49 10° NNW 19:20:18 68° WSW 19:23:42 17° S
Cosmos 2346 Rocket 4.4 19:14:19 10° S 19:20:26 64° E 19:26:31 10° NNE
Cosmos 1603 3.6 19:15:34 10° NNW 19:21:12 62° ENE 19:22:38 47° ESE
ERS-2 4.2 19:18:54 10° SSW 19:22:07 28° W 19:25:21 10° NW
Cosmos 1634 Rocket 4.1 19:18:23 10° N 19:24:23 50° ENE 19:25:21 46° ESE
CZ-2D R/B 3.9 19:22:36 10° S 19:26:23 55° W 19:30:14 10° NNW
Cosmos 1816 Rocket 4.4 19:21:09 10° S 19:27:30 85° E 19:33:54 10° N
H-2A R/B 4.4 19:31:19 11° NNE 19:31:19 11° NNE 19:31:40 10° NNE
USA 267 3.6 19:27:10 39° ENE 19:28:56 47° NNE 19:35:09 10° NW
Resurs 1-3 3.5 19:30:55 74° NE 19:30:55 74° NE 19:35:03 10° N
CENTAUR R/B 3.1 19:27:53 10° SW 19:33:52 56° NW 19:40:44 10° NNE
CZ-4C R/B 3.3 19:30:07 10° NNW 19:36:45 42° NE 19:37:37 40° ENE
SL-8 R/B 4.1 19:35:28 10° W 19:40:09 53° NNW 19:40:31 52° N
Resurs 01 Rocket 1.7 19:42:38 73° NW 19:42:38 73° NW 19:46:44 10° NNW
Cosmos 1975 Rocket 4.0 19:38:14 10° NNW 19:42:30 47° W 19:46:31 11° SSW
Cosmos 1331 Rocket 3.9 19:41:17 10° NNW 19:46:26 81° NNE 19:46:26 81° NNE
Spot 2 Rocket 3.4 19:49:48 82° NNW 19:49:48 82° NNW 19:54:40 10° NNW
Geosat 4.0 19:51:12 69° N 19:51:43 78° WNW 19:56:43 10° SSW
Meteor 2-4 Rocket 3.7 19:47:59 10° NNW 19:53:49 81° W 19:54:53 60° S
Meteor 1-11 Rocket 3.7 19:48:38 10° SSW 19:54:11 80° W 19:59:55 10° N
COSMOS 2455 3.6 19:55:51 10° SSW 19:59:33 40° SSW 19:59:33 40° SSW
ATLAS CENTAUR R/B 4.2 20:21:26 10° NNW 20:21:59 14° NNW 20:21:59 14° NNW
Cosmos 1943 4.1 20:23:17 10° NNW 20:27:09 44° NW 20:27:09 44° NW
USA 215 4.0 20:37:21 44° N 20:38:12 46° NNW 20:44:22 10° W
USA 267 4.5 21:14:32 36° WNW 21:14:32 36° WNW 21:18:18 10° NW
CZ-4C R/B 4.1 21:18:32 10° NW 21:22:51 37° WNW 21:22:51 37° WNW
